SL-8 DEB *, 3965

Orbit data source: Space-Track

SL-8 DEB *, 3965 is space debris in LEO originally from a launch on Mon, 15 Mar 1965 UTC launched from the Tyuratam Missile And Space Complex (TTMTR). Debris objects in space refer to the collection of defunct objects orbiting the Earth. Examples of debris include non-operational satellites, rocket bodies, and fragments generated from explosions, collisions, or faulty payload assembly.

Loading next visibility...
Identifier
3965, 1965-020EY
Orbit
LEO
Country
Flag of CISCIS
Related business
Manufacturer
Unknown
Mission
Spacecraft
Bus & Motor
Unknown
Mass
Unknown
Launch date (UTC)
1965-03-15 (61 years ago)
Launch vehicle
Unknown
Launch site
Tyuratam Missile And Space Complex (TTMTR)
Object type
Payload
Rocket body
Debris
Shape & HBR
Unknown shape, 0.1 m
Radar Cross Section
Small (<0.1 m²)

Expand to show TLE details & history
Last TLE update: 4 days ago

TLE from 4 days ago
0 SL-8 DEB *
1 03965U 65020EY  25336.81949565  .00000197  00000-0  22323-2 0  9993
2 03965  56.2980 191.0485 0270649  46.5128  50.5170 12.27598179725257
Epoch: 2025-12-02T19:40Z
TLE epoch observation values (Epoch: 2025-12-02T19:40:04.424Z)
Latitude
55.27386°
Longitude
-69.11009°
Altitude
1,434.041 km
Speed
7.21 km/s
True Right ascension
19h 51m 13s
True Declination
55° 07' 36"
Sunlit
Object was in daylight at epoch
Visualization orbit readout
Latitude
Unknown
Longitude
Unknown
Altitude
Unknown
Speed
Unknown
Apparent Right ascension
Unknown
Apparent Declination
Unknown
Sunlit
N/A
Visualization observer readout
Local Sidereal Time
02:02:25
Azimuth
Unknown
Elevation
Unknown
Doppler factor
Unknown
Orbital elements
Apogee altitude
1,774.24 km
Perigee altitude
1,344.582 km
Semi-major axis
7,937.548 km
Eccentricity
0.02706
Inclination
56.298°
RAAN
191.0485°
Arg. of periapsis
46.5128°
True anomaly
52.96254°
Mean anomaly
50.517°
Eccentric anomaly
51.73454°
Mean motion
3.06912 °/min
Orbital period
117.3 mins
BSTAR
0.0022323
Loading maneuver chart data...
Computing Atmospheric mass density...
Loading historical data...
Loading historical data...
Loading historical data...
Loading historical data...
Loading historical data...
Loading historical data...
Loading historical data...

Documentation

Showing up to 5 results
|